Location: Clinton NY
(43.0598°N, 75.3602°W)
Time: 02:50:44
(UTC-04:00)

ISS - All Passes

Search period start: 03 September 2015 00:00
Search period end: 13 September 2015 00:00
Orbit: 400 x 403 km, 51.6° (Epoch: 01 September)

Date Brightness Start Highest point End Pass type
(mag) Time Alt. Az. Time Alt. Az. Time Alt. Az.
03 Sep - 07:21:28 10° SSE 07:23:01 13° SE 07:24:41 10° ESE daylight
03 Sep - 08:55:48 10° WSW 08:59:03 80° NW 09:02:20 10° NE daylight
03 Sep - 10:33:14 10° WNW 10:35:52 22° NNW 10:38:30 10° NE daylight
03 Sep - 12:10:41 10° NW 12:13:05 19° N 12:15:29 10° NE daylight
03 Sep - 13:46:56 10° NW 13:50:05 44° NNE 13:53:13 10° E daylight
03 Sep - 15:23:36 10° WNW 15:26:22 25° SW 15:29:05 10° SSE daylight
04 Sep - 08:02:37 10° SW 08:05:48 54° SE 08:09:01 10° ENE daylight
04 Sep - 09:39:29 10° W 09:42:22 28° NNW 09:45:16 10° NE daylight
04 Sep - 11:17:13 10° NW 11:19:32 18° N 11:21:51 10° NE daylight
04 Sep - 12:53:44 10° NW 12:56:40 30° NNE 12:59:36 10° E daylight
04 Sep - 14:30:02 10° WNW 14:33:12 48° SW 14:36:20 10° SE daylight
05 Sep - 07:09:47 10° SSW 07:12:38 28° SE 07:15:30 10° ENE daylight
05 Sep - 08:45:50 10° W 08:48:57 41° NNW 08:52:04 10° NE daylight
05 Sep - 10:23:36 10° NW 10:25:59 18° N 10:28:22 10° NE daylight
05 Sep - 12:00:31 10° NW 12:03:11 23° NNE 12:05:52 10° ENE daylight
05 Sep - 13:36:41 10° WNW 13:39:58 88° NE 13:43:12 10° ESE daylight
05 Sep - 15:14:40 10° WSW 15:15:57 12° SW 15:17:07 10° SSW daylight
06 Sep - 06:17:33 10° S 06:19:30 15° SE 06:21:32 10° E daylight
06 Sep - 07:52:21 10° WSW 07:55:36 69° NNW 07:58:52 10° NE daylight
06 Sep - 09:29:52 10° WNW 09:32:27 21° NNW 09:35:01 10° NE daylight
06 Sep - 11:07:13 10° NW 11:09:40 19° N 11:12:08 10° ENE daylight
06 Sep - 12:43:26 10° NW 12:46:38 50° NNE 12:49:49 10° ESE daylight
06 Sep - 14:20:15 10° W 14:22:52 22° SW 14:25:25 10° S daylight
07 Sep - 06:59:06 10° SW 07:02:19 64° SE 07:05:34 10° ENE daylight
07 Sep - 08:36:07 10° WNW 08:38:57 26° NNW 08:41:48 10° NE daylight
07 Sep - 10:13:48 10° NW 10:16:08 18° N 10:18:28 10° NE daylight
07 Sep - 11:50:15 10° NW 11:53:14 32° NNE 11:56:14 10° E daylight
07 Sep - 13:26:37 10° WNW 13:29:42 41° SW 13:32:47 10° SSE daylight
08 Sep - 06:06:10 10° SSW 06:09:08 33° SE 06:12:07 10° ENE visible
08 Sep - 07:42:26 10° W 07:45:32 37° NNW 07:48:36 10° NE daylight
08 Sep - 09:20:13 10° NW 09:22:35 18° N 09:24:56 10° NE daylight
08 Sep - 10:57:03 10° NW 10:59:46 24° NNE 11:02:31 10° ENE daylight
08 Sep - 12:33:13 10° WNW 12:36:29 80° SW 12:39:44 10° SE daylight
09 Sep - 05:13:45 10° S 05:16:00 18° SE 05:18:19 10° E visible
09 Sep - 06:48:55 10° WSW 06:52:09 60° NNW 06:55:24 10° NE daylight
09 Sep - 08:26:31 10° WNW 08:29:03 20° N 08:31:34 10° NE daylight
09 Sep - 10:03:46 10° NW 10:06:16 20° N 10:08:47 10° ENE daylight
09 Sep - 11:39:58 10° NW 11:43:11 57° NNE 11:46:24 10° ESE daylight
09 Sep - 13:16:57 10° W 13:19:22 19° SW 13:21:42 10° S daylight
10 Sep - 05:55:36 10° SW 05:58:51 75° SE 06:02:07 10° ENE visible
10 Sep - 07:32:46 10° WNW 07:35:33 25° NNW 07:38:19 10° NE daylight
10 Sep - 09:10:23 10° NW 09:12:44 18° N 09:15:05 10° NE daylight
10 Sep - 10:46:46 10° NW 10:49:48 35° NNE 10:52:52 10° E daylight
10 Sep - 12:23:12 10° WNW 12:26:14 35° SW 12:29:13 10° SSE daylight
11 Sep - 05:02:35 10° SSW 05:05:39 38° SE 05:08:44 10° ENE visible
11 Sep - 06:39:04 10° W 06:42:05 34° NNW 06:45:07 10° NE daylight
11 Sep - 08:16:50 10° NW 08:19:11 18° N 08:21:32 10° NE daylight
11 Sep - 09:53:34 10° NW 09:56:22 26° NNE 09:59:10 10° ENE daylight
11 Sep - 11:29:46 10° WNW 11:33:01 69° SW 11:36:15 10° SE daylight
12 Sep - 04:10:01 10° S 04:12:29 20° SE 04:15:01 10° E visible
12 Sep - 05:45:30 10° WSW 05:48:42 53° NNW 05:51:55 10° NE visible
12 Sep - 07:23:10 10° WNW 07:25:39 20° N 07:28:07 10° NE daylight
12 Sep - 09:00:19 10° NW 09:02:52 21° N 09:05:25 10° ENE daylight
12 Sep - 10:36:30 10° NW 10:39:45 65° NNE 10:42:59 10° ESE daylight
12 Sep - 12:13:42 10° W 12:15:52 16° SW 12:17:57 10° S daylight
